Lebanon, NH

3:27 AM EST on November 24, 2017 (GMT -0500)
Lebanon Municipal

Weather History for KLEB - March, 2013

Change the Weather History Date:

Saturday, March 23, 2013

  Actual Average Record
Temperature  
Mean Temperature 30 °F -  
Max Temperature 39 °F 44 °F 79 °F (1938)
Min Temperature 21 °F 22 °F -5 °F (1939)
Degree Days  
Heating Degree Days 35    
Moisture  
Dew Point 18 °F    
Average Humidity 56    
Maximum Humidity 81    
Minimum Humidity 38    
Precipitation  
Precipitation 0.00 in - - ()
Sea Level Pressure  
Sea Level Pressure 29.71 in    
Wind  
Wind Speed 7 mph (WNW)    
Max Wind Speed 18 mph    
Max Gust Speed 30 mph    
Visibility 10 miles    
Events Snow    
Averages and records for this station are not official NWS values.
T = Trace of Precipitation, MM = Missing Value Source: NWS Daily Summary

Daily Weather History Graph

Daily Weather History Graph

Search for Another Location

Airport or City:

Trip Planner

Search our weather history database for the weather conditions in past years. The results will help you decide how hot, cold, wet, or windy it might be!

Date:

Astronomy

Mar. 23, 2013 Rise Set
Actual Time 6:46 AM EDT 7:05 PM EDT
Civil Twilight 6:17 AM EDT 7:34 PM EDT
Nautical Twilight 5:44 AM EDT 8:07 PM EDT
Astronomical Twilight 5:09 AM EDT 8:42 PM EDT
Moon 3:23 PM EDT (3/23) 4:27 AM EDT (3/23)
Length of Visible Light 13h 16m
Length of Day
12h 18m
Waxing Gibbous, 85% of the Moon is Illuminated
Mar 23
Waxing Gibbous
Mar 27
Full
Apr 3
Last Quarter
Apr 10
New
Apr 18
First Quarter

Hourly Weather History & Observations

Time (EDT) Temp. Windchill Dew Point Humidity Pressure Visibility Wind Dir Wind Speed Gust Speed Precip Events Conditions
12:53 AM 28.0 °F - 17.1 °F 63% 29.74 in 10.0 mi Calm Calm - N/A   Mostly Cloudy
1:53 AM 26.1 °F 20.5 °F 18.0 °F 71% 29.73 in 10.0 mi SSW 4.6 mph - N/A   Mostly Cloudy
2:53 AM 23.0 °F - 16.0 °F 74% 29.71 in 10.0 mi Calm Calm - N/A   Clear
3:53 AM 25.0 °F 19.3 °F 17.1 °F 72% 29.70 in 10.0 mi South 4.6 mph - N/A   Overcast
4:53 AM 21.0 °F 14.6 °F 16.0 °F 81% 29.69 in 10.0 mi South 4.6 mph - N/A   Scattered Clouds
5:53 AM 25.0 °F - 17.1 °F 72% 29.68 in 10.0 mi Calm Calm - N/A   Scattered Clouds
6:53 AM 27.0 °F 23.0 °F 19.0 °F 72% 29.69 in 10.0 mi South 3.5 mph - N/A   Overcast
7:53 AM 28.9 °F 23.9 °F 19.9 °F 69% 29.70 in 4.0 mi WSW 4.6 mph - 0.00 in Snow Light Snow
8:53 AM 30.9 °F 24.3 °F 19.9 °F 64% 29.69 in 9.0 mi WNW 6.9 mph - 0.00 in   Overcast
9:53 AM 34.0 °F 25.0 °F 18.0 °F 52% 29.68 in 10.0 mi NW 12.7 mph 20.7 mph N/A   Overcast
10:53 AM 34.0 °F 26.0 °F 17.1 °F 50% 29.66 in 10.0 mi West 10.4 mph - N/A   Overcast
11:53 AM 35.1 °F 25.9 °F 18.0 °F 50% 29.66 in 10.0 mi WNW 13.8 mph 21.9 mph N/A   Overcast
12:53 PM 37.0 °F 27.0 °F 17.1 °F 44% 29.65 in 10.0 mi WNW 18.4 mph 29.9 mph N/A   Overcast
1:53 PM 37.9 °F 28.9 °F 16.0 °F 41% 29.66 in 10.0 mi West 16.1 mph 26.5 mph N/A   Overcast
2:53 PM 39.9 °F 32.1 °F 16.0 °F 38% 29.67 in 10.0 mi NW 13.8 mph 23.0 mph N/A   Overcast
3:53 PM 39.0 °F 30.3 °F 17.1 °F 41% 29.68 in 10.0 mi West 16.1 mph 29.9 mph N/A   Overcast
4:53 PM 39.0 °F 31.4 °F 17.1 °F 41% 29.70 in 10.0 mi NW 12.7 mph 20.7 mph N/A   Overcast
5:53 PM 37.9 °F 30.9 °F 21.0 °F 51% 29.73 in 10.0 mi NW 10.4 mph 17.3 mph N/A   Overcast
6:53 PM 36.0 °F 27.5 °F 19.0 °F 50% 29.74 in 10.0 mi WNW 12.7 mph 18.4 mph N/A   Overcast
7:53 PM 36.0 °F 27.1 °F 18.0 °F 48% 29.76 in 10.0 mi NW 13.8 mph 18.4 mph N/A   Overcast
8:53 PM 36.0 °F 29.6 °F 19.0 °F 50% 29.79 in 10.0 mi NW 8.1 mph 17.3 mph N/A   Overcast
9:53 PM 35.1 °F 26.9 °F 19.0 °F 52% 29.79 in 10.0 mi NNW 11.5 mph 19.6 mph N/A   Overcast
10:53 PM 35.1 °F 26.9 °F 19.9 °F 54% 29.78 in 10.0 mi NW 11.5 mph 19.6 mph N/A   Overcast
11:53 PM 35.1 °F 27.4 °F 19.9 °F 54% 29.78 in 10.0 mi WNW 10.4 mph 18.4 mph N/A   Overcast